uw.edu alexa rank chart, uw.edu alexa rank daily changes

uw.edu alexa rank chart, uw.edu alexa rank daily changes

uw.edu
Actual rank:
3 827

RANK HISTORY

Date Rank Diff
2017/10/18 3 827 -15
2017/10/17 3 842 -115
2017/10/16 3 957 -72
2017/10/14 4 029 -127
2017/10/13 4 156 -6
2017/10/12 4 162 -146
2017/10/11 4 308 -215
2017/10/10 4 523 -141
2017/10/09 4 664 -81
2017/10/08 4 745 -148
2017/10/07 4 893 -202
2017/10/06 5 095 -268
2017/10/05 5 363 -259
2017/10/04 5 622 -85
2017/10/03 5 707 -205
2017/10/02 5 912 -146
2017/10/01 6 058 -467
2017/09/30 6 525 -380
2017/09/29 6 905 -496
2017/09/28 7 401 -265
2017/09/27 7 666 -134
2017/09/26 7 800 -27
2017/09/25 7 827 -61
2017/09/24 7 888 -106
2017/09/23 7 994 -221
2017/09/22 8 215 -95
2017/09/20 8 310 +69
2017/09/19 8 241 +75
2017/09/18 8 166 +159
2017/09/17 8 007 +101
2017/09/16 7 906 +50
2017/09/15 7 856 -27
2017/09/14 7 883 -15
2017/09/13 7 898 +101
2017/09/12 7 797 +119
2017/09/11 7 678 +148
2017/09/10 7 530 +122
2017/09/09 7 408 +16
2017/09/08 7 392 -26
2017/09/07 7 418 -24
2017/09/06 7 442 +107
2017/09/05 7 335 +188
2017/09/04 7 147 +152
2017/09/03 6 995 +80
2017/09/02 6 915 +30
2017/09/01 6 885 +37
2017/08/31 6 848 -17
2017/08/30 6 865 +15
2017/08/29 6 850 +80
2017/08/28 6 770 +70
2017/08/27 6 700 +60
2017/08/26 6 640 +26
2017/08/25 6 614 -12
2017/08/24 6 626 +6
2017/08/23 6 620 +49
2017/08/22 6 571 +61
2017/08/21 6 510 +87
2017/08/20 6 423

WIDGET FOR YOUR SITE

DOMAINS WITH THE NEAREST RANK

Domain Rank
istruzione.it 3 822
fontspace.com 3 823
nme.com 3 824
banglanews24.com 3 825
wnd.com 3 826
uw.edu 3 827
setare.com 3 828
couchsurfing.com 3 829
shahneman.info 3 830
pcbaby.com.cn 3 831
jutarnji.hr 3 832

DOMAINS WITH THE NEAREST RANK BY TLD .edu

Domain Rank
osu.edu 3 425
pitt.edu 3 509
utah.edu 3 693
iastate.edu 3 710
ucsb.edu 3 764
uw.edu 3 827
umass.edu 3 920
uh.edu 4 050
oregonstate.edu 4 070
fsu.edu 4 185
wustl.edu 4 315